When you browse on this site, cookies collect data to enhance your experience and personalize the content and advertising you see.
Visit our Privacy Policy to learn more. By continuing to use the site, you agree to this use of cookies and data.
  • In Belgium
  • List of Countries
  • For 7 days
  • Water Temperature
  • Weather Map
  • Weather Widgets
  • user-avatar
    Login

    Hourly Weather Bafoussam

    Today, 11 November, Monday

    Time Temperature Precipitation Wind Pressure Humidity
    00:00 +19°C° 0 mm 1 mps 642 mmHg 89%
    01:00 +19°C° 0 mm 1 mps 642 mmHg 90%
    02:00 +19°C° 0 mm 1 mps 642 mmHg 90%
    03:00 +17°C° 0 mm 0 mps 642 mmHg 89%
    04:00 +16°C° 0 mm 0 mps 641 mmHg 89%
    05:00 +17°C° 0 mm 0 mps 642 mmHg 89%
    06:00 +17°C° 0 mm 0 mps 642 mmHg 88%
    07:00 +18°C° 0 mm 0 mps 643 mmHg 88%
    08:00 +20°C° 0 mm 0 mps 644 mmHg 80%
    09:00 +24°C° 0 mm 1 mps 644 mmHg 72%
    10:00 +26°C° 0 mm 1 mps 645 mmHg 65%
    11:00 +26°C° 0.1 mm 1 mps 644 mmHg 64%
    12:00 +26°C° 0.1 mm 2 mps 644 mmHg 62%
    13:00 +26°C° 0 mm 1 mps 643 mmHg 68%
    14:00 +25°C° 0.5 mm 1 mps 642 mmHg 71%
    15:00 +25°C° 0.5 mm 1 mps 642 mmHg 74%
    16:00 +24°C° 0.5 mm 1 mps 641 mmHg 77%
    17:00 +23°C° 0.3 mm 1 mps 641 mmHg 80%
    18:00 +21°C° 0.3 mm 1 mps 641 mmHg 84%
    19:00 +20°C° 0.3 mm 1 mps 642 mmHg 87%
    20:00 +20°C° 0.1 mm 1 mps 642 mmHg 88%
    21:00 +20°C° 0.1 mm 1 mps 642 mmHg 89%
    22:00 +19°C° 0.1 mm 1 mps 643 mmHg 90%
    23:00 +19°C° 0 mm 1 mps 642 mmHg 90%

    Tomorrow, 12 November, Tuesday

    Time Temperature Precipitation Wind Pressure Humidity
    00:00 +19°C° 0 mm 1 mps 642 mmHg 90%
    01:00 +19°C° 0 mm 1 mps 642 mmHg 90%
    02:00 +19°C° 0 mm 1 mps 641 mmHg 90%
    03:00 +19°C° 0 mm 1 mps 641 mmHg 91%
    04:00 +19°C° 0 mm 1 mps 641 mmHg 91%
    05:00 +17°C° 0 mm 0 mps 641 mmHg 90%
    06:00 +17°C° 0 mm 0 mps 642 mmHg 90%
    07:00 +17°C° 0 mm 0 mps 642 mmHg 89%
    08:00 +19°C° 0.2 mm 0 mps 643 mmHg 84%
    09:00 +21°C° 0.2 mm 0 mps 644 mmHg 79%
    10:00 +23°C° 0.2 mm 0 mps 645 mmHg 74%
    11:00 +25°C° 0.6 mm 1 mps 644 mmHg 72%
    12:00 +25°C° 0.6 mm 1 mps 644 mmHg 70%
    13:00 +25°C° 0.6 mm 1 mps 643 mmHg 67%
    14:00 +25°C° 0.5 mm 1 mps 643 mmHg 72%
    15:00 +24°C° 0.5 mm 1 mps 642 mmHg 77%
    16:00 +23°C° 0.5 mm 1 mps 642 mmHg 82%
    17:00 +22°C° 0.2 mm 1 mps 642 mmHg 86%
    18:00 +21°C° 0.2 mm 1 mps 642 mmHg 90%
    19:00 +20°C° 0.2 mm 1 mps 642 mmHg 94%
    20:00 +20°C° 0 mm 1 mps 642 mmHg 94%
    21:00 +19°C° 0 mm 1 mps 642 mmHg 94%
    22:00 +19°C° 0 mm 1 mps 642 mmHg 94%
    23:00 +19°C° 0 mm 1 mps 642 mmHg 93%

    Day after tomorrow, 13 November, Wednesday

    Time Temperature Precipitation Wind Pressure Humidity
    00:00 +19°C° 0 mm 1 mps 642 mmHg 93%
    01:00 +16°C° 0 mm 0 mps 642 mmHg 92%
    02:00 +18°C° 0 mm 1 mps 641 mmHg 92%
    03:00 +18°C° 0 mm 1 mps 641 mmHg 91%
    04:00 +18°C° 0 mm 1 mps 641 mmHg 91%
    05:00 +19°C° 0 mm 1 mps 641 mmHg 90%
    06:00 +19°C° 0 mm 1 mps 642 mmHg 90%
    07:00 +19°C° 0 mm 1 mps 642 mmHg 89%
    08:00 +21°C° 0 mm 1 mps 643 mmHg 83%
    09:00 +23°C° 0 mm 1 mps 643 mmHg 78%
    10:00 +25°C° 0 mm 1 mps 644 mmHg 72%
    11:00 +26°C° 0.1 mm 1 mps 644 mmHg 68%
    12:00 +26°C° 0.1 mm 1 mps 644 mmHg 64%
    13:00 +27°C° 0.1 mm 2 mps 644 mmHg 60%
    14:00 +27°C° 0.5 mm 1 mps 643 mmHg 64%
    15:00 +26°C° 0.5 mm 1 mps 642 mmHg 69%
    16:00 +25°C° 0.5 mm 1 mps 642 mmHg 73%
    17:00 +24°C° 0.2 mm 1 mps 642 mmHg 78%
    18:00 +22°C° 0.2 mm 1 mps 642 mmHg 83%
    19:00 +18°C° 0.2 mm 0 mps 642 mmHg 88%
    20:00 +20°C° 0.2 mm 1 mps 642 mmHg 89%
    21:00 +20°C° 0.2 mm 1 mps 642 mmHg 90%
    22:00 +20°C° 0.2 mm 1 mps 643 mmHg 90%
    23:00 +19°C° 0.1 mm 1 mps 642 mmHg 90%

    14 November, Thursday

    Time Temperature Precipitation Wind Pressure Humidity
    00:00 +19°C° 0.1 mm 1 mps 642 mmHg 90%
    01:00 +19°C° 0.1 mm 1 mps 642 mmHg 90%
    02:00 +19°C° 0.2 mm 1 mps 642 mmHg 90%
    03:00 +19°C° 0.2 mm 1 mps 642 mmHg 91%
    04:00 +19°C° 0.2 mm 1 mps 641 mmHg 91%
    05:00 +19°C° 0 mm 1 mps 642 mmHg 90%
    06:00 +17°C° 0 mm 0 mps 642 mmHg 90%
    07:00 +18°C° 0 mm 0 mps 643 mmHg 90%
    08:00 +22°C° 0.1 mm 1 mps 644 mmHg 81%
    09:00 +24°C° 0.1 mm 1 mps 644 mmHg 73%
    10:00 +26°C° 0.1 mm 2 mps 645 mmHg 64%
    11:00 +26°C° 0.1 mm 2 mps 644 mmHg 62%
    12:00 +27°C° 0.1 mm 3 mps 644 mmHg 59%
    13:00 +27°C° 0.1 mm 3 mps 643 mmHg 57%
    14:00 +26°C° 0.1 mm 2 mps 643 mmHg 61%
    15:00 +26°C° 0.1 mm 2 mps 642 mmHg 66%
    16:00 +25°C° 0.1 mm 2 mps 642 mmHg 70%
    17:00 +24°C° 0.1 mm 1 mps 642 mmHg 76%
    18:00 +22°C° 0.1 mm 1 mps 642 mmHg 82%
    19:00 +21°C° 0.1 mm 1 mps 642 mmHg 87%
    20:00 +20°C° 0 mm 1 mps 642 mmHg 88%
    21:00 +20°C° 0 mm 1 mps 642 mmHg 88%
    22:00 +20°C° 0 mm 1 mps 643 mmHg 89%
    23:00 +20°C° 0 mm 1 mps 642 mmHg 89%

    15 November, Friday

    Time Temperature Precipitation Wind Pressure Humidity
    00:00 +17°C° 0 mm 0 mps 642 mmHg 89%
    01:00 +17°C° 0 mm 0 mps 642 mmHg 89%
    02:00 +17°C° 0 mm 0 mps 642 mmHg 89%
    03:00 +17°C° 0 mm 0 mps 641 mmHg 89%
    04:00 +17°C° 0 mm 0 mps 641 mmHg 89%
    05:00 +17°C° 0 mm 0 mps 641 mmHg 89%
    06:00 +17°C° 0 mm 0 mps 642 mmHg 89%
    07:00 +20°C° 0 mm 1 mps 642 mmHg 89%
    08:00 +22°C° 0 mm 1 mps 643 mmHg 80%
    09:00 +24°C° 0 mm 1 mps 644 mmHg 71%
    10:00 +25°C° 0 mm 2 mps 644 mmHg 62%
    11:00 +26°C° 0 mm 2 mps 644 mmHg 59%
    12:00 +27°C° 0 mm 2 mps 643 mmHg 57%
    13:00 +27°C° 0 mm 3 mps 643 mmHg 55%
    14:00 +27°C° 0 mm 3 mps 642 mmHg 58%
    15:00 +26°C° 0 mm 2 mps 642 mmHg 60%
    16:00 +26°C° 0 mm 2 mps 641 mmHg 63%
    17:00 +24°C° 0 mm 2 mps 641 mmHg 70%
    18:00 +22°C° 0 mm 1 mps 641 mmHg 77%
    19:00 +19°C° 0 mm 0 mps 641 mmHg 85%
    20:00 +18°C° 0 mm 0 mps 641 mmHg 86%
    21:00 +20°C° 0 mm 1 mps 642 mmHg 88%
    22:00 +20°C° 0 mm 1 mps 642 mmHg 90%
    23:00 +19°C° 0 mm 1 mps 642 mmHg 90%

    16 November, Saturday

    Time Temperature Precipitation Wind Pressure Humidity
    00:00 +19°C° 0 mm 1 mps 642 mmHg 91%
    01:00 +19°C° 0 mm 1 mps 641 mmHg 91%
    02:00 +19°C° 0 mm 1 mps 641 mmHg 90%
    03:00 +19°C° 0 mm 1 mps 641 mmHg 90%
    04:00 +16°C° 0 mm 0 mps 641 mmHg 89%
    05:00 +17°C° 0 mm 0 mps 641 mmHg 88%
    06:00 +17°C° 0 mm 0 mps 641 mmHg 87%
    07:00 +17°C° 0 mm 0 mps 642 mmHg 86%
    08:00 +22°C° 0 mm 1 mps 643 mmHg 76%
    09:00 +24°C° 0 mm 1 mps 644 mmHg 67%
    10:00 +26°C° 0 mm 2 mps 644 mmHg 58%
    11:00 +27°C° 0 mm 2 mps 644 mmHg 55%
    12:00 +27°C° 0 mm 2 mps 643 mmHg 52%
    13:00 +28°C° 0 mm 3 mps 643 mmHg 49%
    14:00 +27°C° 0 mm 3 mps 642 mmHg 52%
    15:00 +27°C° 0 mm 2 mps 642 mmHg 55%
    16:00 +26°C° 0 mm 2 mps 641 mmHg 59%
    17:00 +25°C° 0.1 mm 2 mps 641 mmHg 66%
    18:00 +23°C° 0.1 mm 1 mps 641 mmHg 74%
    19:00 +21°C° 0.1 mm 1 mps 641 mmHg 81%
    20:00 +20°C° 0 mm 1 mps 641 mmHg 85%
    21:00 +20°C° 0 mm 1 mps 642 mmHg 88%
    22:00 +19°C° 0 mm 1 mps 642 mmHg 92%
    23:00 +19°C° 0 mm 1 mps 642 mmHg 92%
    Show more